Time,TemperatureF,DewpointF,PressureIn,WindDirection,WindDirectionDegrees,WindSpeedMPH,WindSpeedGustMPH,Humidity,HourlyPrecipIn,Conditions,Clouds,dailyrainin,SoftwareType,DateUTC
2013-03-03 00:01:00,38.0,26.0,-100.00,WSW,237,2.0,5.0,62,0.00,,,0.00,,2013-03-03 07:01:00,
2013-03-03 00:11:00,38.0,26.0,-100.00,WSW,237,2.0,5.0,62,0.00,,,0.00,,2013-03-03 07:11:00,
2013-03-03 00:21:00,39.0,27.0,-100.00,SSW,208,1.0,7.0,63,0.00,,,0.00,,2013-03-03 07:21:00,
2013-03-03 00:31:00,39.0,29.0,-100.00,South,179,1.0,7.0,66,0.00,,,0.00,,2013-03-03 07:31:00,
2013-03-03 00:42:00,39.0,29.0,-100.00,South,179,1.0,7.0,66,0.00,,,0.00,,2013-03-03 07:42:00,
2013-03-03 00:52:00,38.0,30.0,-100.00,SSW,197,2.0,11.0,72,0.00,,,0.00,,2013-03-03 07:52:00,
2013-03-03 01:01:00,37.0,30.0,-100.00,SSW,200,2.0,10.0,75,0.00,,,0.00,,2013-03-03 08:01:00,
2013-03-03 01:11:00,37.0,30.0,-100.00,SSW,200,2.0,10.0,75,0.00,,,0.00,,2013-03-03 08:11:00,
2013-03-03 01:21:00,37.0,30.0,-100.00,SW,224,2.0,10.0,75,0.00,,,0.00,,2013-03-03 08:21:00,
2013-03-03 01:31:00,37.0,30.0,-100.00,SW,231,2.0,7.0,77,0.00,,,0.00,,2013-03-03 08:31:00,
2013-03-03 01:41:00,37.0,30.0,-100.00,SW,231,2.0,7.0,77,0.00,,,0.00,,2013-03-03 08:41:00,
2013-03-03 01:53:00,36.0,30.0,-100.00,SW,233,2.0,9.0,79,0.00,,,0.00,,2013-03-03 08:53:00,
2013-03-03 02:01:00,36.0,31.0,-100.00,SW,218,2.0,11.0,82,0.00,,,0.00,,2013-03-03 09:01:00,
2013-03-03 02:11:00,36.0,31.0,-100.00,SW,218,2.0,11.0,82,0.00,,,0.00,,2013-03-03 09:11:00,
2013-03-03 02:21:00,35.0,30.0,-100.00,SW,217,2.0,8.0,83,0.00,,,0.00,,2013-03-03 09:21:00,
2013-03-03 02:31:00,35.0,31.0,-100.00,SSW,192,2.0,5.0,85,0.00,,,0.00,,2013-03-03 09:31:00,
2013-03-03 02:41:00,35.0,31.0,-100.00,SSW,192,2.0,5.0,85,0.00,,,0.00,,2013-03-03 09:41:00,
2013-03-03 02:52:00,34.0,30.0,-100.00,SW,222,0.0,3.0,86,0.00,,,0.00,,2013-03-03 09:52:00,
2013-03-03 03:01:00,34.0,31.0,-100.00,South,183,1.0,4.0,88,0.01,,,0.01,,2013-03-03 10:01:00,
2013-03-03 03:11:00,34.0,31.0,-100.00,South,183,1.0,4.0,88,0.01,,,0.01,,2013-03-03 10:11:00,
2013-03-03 03:21:00,34.0,31.0,-100.00,SW,220,3.0,8.0,88,0.01,,,0.01,,2013-03-03 10:21:00,
2013-03-03 03:31:00,34.0,31.0,-100.00,South,181,3.0,9.0,89,0.01,,,0.01,,2013-03-03 10:31:00,
2013-03-03 03:41:00,34.0,31.0,-100.00,South,181,3.0,9.0,89,0.01,,,0.01,,2013-03-03 10:41:00,
2013-03-03 03:52:00,34.0,31.0,-100.00,ESE,102,3.0,11.0,89,0.02,,,0.02,,2013-03-03 10:52:00,
2013-03-03 04:01:00,34.0,31.0,-100.00,SSW,202,2.0,13.0,90,0.01,,,0.02,,2013-03-03 11:01:00,
2013-03-03 04:11:00,34.0,31.0,-100.00,SSW,202,2.0,13.0,90,0.01,,,0.02,,2013-03-03 11:11:00,
2013-03-03 04:21:00,33.0,30.0,-100.00,South,187,4.0,10.0,90,0.01,,,0.02,,2013-03-03 11:21:00,
2013-03-03 04:31:00,33.0,31.0,-100.00,SW,218,2.0,7.0,91,0.01,,,0.02,,2013-03-03 11:31:00,
2013-03-03 04:41:00,33.0,31.0,-100.00,SW,218,2.0,7.0,91,0.01,,,0.02,,2013-03-03 11:41:00,
2013-03-03 04:52:00,33.0,31.0,-100.00,SW,231,1.0,5.0,91,0.00,,,0.02,,2013-03-03 11:52:00,
2013-03-03 05:01:00,33.0,31.0,-100.00,SW,232,2.0,13.0,92,0.00,,,0.02,,2013-03-03 12:01:00,
2013-03-03 05:11:00,33.0,31.0,-100.00,SW,232,2.0,13.0,92,0.00,,,0.02,,2013-03-03 12:11:00,
2013-03-03 05:21:00,33.0,31.0,-100.00,SSE,148,2.0,8.0,91,0.01,,,0.03,,2013-03-03 12:21:00,
2013-03-03 05:31:00,33.0,31.0,-100.00,SSE,148,2.0,8.0,91,0.01,,,0.03,,2013-03-03 12:31:00,
2013-03-03 05:42:00,33.0,31.0,-100.00,SSE,148,2.0,8.0,91,0.01,,,0.03,,2013-03-03 12:42:00,
2013-03-03 05:52:00,33.0,31.0,-100.00,SSE,148,2.0,8.0,91,0.01,,,0.03,,2013-03-03 12:52:00,